DIAMANT R/B

Satellite information

Favourite Embed

Satellite Type and Status

ROCKET BODYIN ORBIT

Key statistics

Satellite DIAMANT R/B at a glance.

Uptime

21834

Days in orbit

Revolutions

≈ 13.9

Per day

Orbit

LEO

Low Earth Orbit

Inclination

34.2

Latest

Satellite identification and parameters

Extended collection of information and parameters for DIAMANT R/B.

Object identification

Identified? True

Debris? False

Object name: DIAMANT R/B

International designator: 1965-096B

Object number (NORAD): 1805

Object ID (CCSDS): 1805

Country: FRANCE (FR)

Current information (Y/N): Y

RCS size: LARGE

Orbital parameters

Period: 103.849 minutes

Inclination: 34.2463 deg

SMA: 7318.602 km

Apoapsis: 1370.367 km

Periapsis: 510.566 km

RAAN: 20.7999 deg

Eccentricy: 0.05874082

Argument of periapsis: 107.644 deg

Mean anomaly: 258.9219 deg

Mean motion: 13.86630041 rev/day

Mean motion (dot): 0.00003551 rev/day2

B* drag term: 0.00074538607 1/REarth

Two-line elements (TLE)

Creation date: Sept. 6, 2025, 2:09 a.m.

Reference frame: TEME

Reference center: EARTH

Epoch: Sept. 5, 2025, 3:57 p.m. UTC

TLE line 0: 0 DIAMANT R/B

TLE line 1: 1 01805U 65096B 25248.66464599 .00003551 00000-0 74539-3 0 9995

TLE line 2: 2 01805 34.2463 20.7999 0587408 107.6440 258.9219 13.86630041965174

Live tracking on map

Real-time ground track for satellite DIAMANT R/B.

In-orbit conjunctions

A list of the most updated potential collisions computed for object DIAMANT R/B.

Target Orbit TCA Probability of collision Miss distance Type
CZ-6A DEB LEO 2024-11-05 01:03:59 0.0001517168 843.0 (m) DEBRIS
FENGYUN 1C DEB SSO 2024-11-01 15:08:06 0.0001687414 320.0 (m) DEBRIS
DMSP 5D-2 F13 DEB SSO 2024-06-28 13:19:01 0.0001008414 521.0 (m) DEBRIS

Associated space launch

First french satellite

DIAMANT R/B was lifted into orbit during the mission ‘Diamant A | Asterix’, on board a Diamant A space rocket.

The launch took place on Nov. 26, 1965, 2:47 p.m. from Brigitte.

For more information about the launch, click the button.

Launch to space Diamant A | Asterix
Diamant A | Asterix

Agency: N/A

Status: Launch Successful

Launch date: Nov. 26, 1965, 2:47 p.m. UTC

Rocket: Diamant A

Launch pad: Brigitte

Location: Interarmy Special Vehicles Test Centre, French Algeria

...

Latest news about this satellite

There are no fresh news available about this satellite. Check back as we update our databases every day.


Newsletter sign-up

Weekly statistics, charts and insights to help you stay on top of the space industry.